GW4731 Weather Reports


Display with metric or nautical units.
time (UTC)temp
F
wind
direction
speed
MPH
gust
MPH
rain 1hr
in
rain 24hr
in
rain mn
in
humidity
%
barometer
mb
20260504034739 43 240 1.0 2.0 0.00 0.00 0.00 66 1017.5
20260504034236 44 246 0.0 0.0 0.00 0.00 0.00 63 1017.5
20260504033734 44 269 0.0 0.0 0.00 0.00 0.00 64 1017.7
20260504033231 45 263 0.0 1.0 0.00 0.00 0.00 62 1017.6
20260504032728 45 259 0.0 1.0 0.00 0.00 0.00 61 1017.5
20260504032225 47 262 1.0 1.0 0.00 0.00 0.00 58 1017.5
20260504031722 47 252 2.0 2.0 0.00 0.00 0.00 56 1017.4
20260504031219 46 244 2.0 2.0 0.00 0.00 0.00 56 1017.4
20260504030715 44 247 2.0 2.0 0.00 0.00 0.00 62 1017.6
20260504030213 43 235 0.0 0.0 0.00 0.00 0.00 66 1017.4
20260504025709 43 246 0.0 0.0 0.00 0.00 0.00 67 1017.5
20260504025205 44 239 0.0 1.0 0.00 0.00 0.00 63 1017.4
20260504024703 44 247 1.0 1.0 0.00 0.00 0.00 61 1017.5
20260504024159 42 236 0.0 0.0 0.00 0.00 0.00 68 1017.5
20260504023656 43 231 0.0 0.0 0.00 0.00 0.00 72 1017.3
20260504023152 45 234 0.0 1.0 0.00 0.00 0.00 67 1017.2
20260504022648 45 235 1.0 1.0 0.00 0.00 0.00 67 1017.3
20260504022144 44 234 0.0 0.0 0.00 0.00 0.00 66 1017.2
20260504021642 44 241 0.0 0.0 0.00 0.00 0.00 69 1017.1
20260504021139 42 227 0.0 0.0 0.00 0.00 0.00 70 1017.0
20260504020636 41 225 0.0 0.0 0.00 0.00 0.00 77 1016.8
20260504020132 44 323 0.0 0.0 0.00 0.00 0.00 69 1016.6
20260504015628 45 8 0.0 0.0 0.00 0.00 0.00 65 1016.7
20260504015125 46 338 0.0 0.0 0.00 0.00 0.00 65 1016.8
20260504014621 47 238 0.0 1.0 0.00 0.00 0.00 61 1016.8
20260504014118 47 220 1.0 1.0 0.00 0.00 0.00 60 1016.9
20260504013615 47 226 2.0 2.0 0.00 0.00 0.00 60 1017.0
20260504013112 47 230 2.0 2.0 0.00 0.00 0.00 59 1016.8
20260504012610 47 225 1.0 1.0 0.00 0.00 0.00 59 1016.8
20260504012108 47 239 1.0 2.0 0.00 0.00 0.00 58 1016.8
20260504011604 47 228 1.0 2.0 0.00 0.00 0.00 60 1016.8
20260504011100 50 243 0.0 0.0 0.00 0.00 0.00 51 1016.6
20260504010556 51 284 0.0 0.0 0.00 0.00 0.00 46 1016.7
20260504010052 51 238 0.0 0.0 0.00 0.00 0.00 45 1016.6
20260504005549 52 253 0.0 0.0 0.00 0.00 0.00 43 1016.5
20260504005046 52 259 0.0 0.0 0.00 0.00 0.00 43 1016.5
20260504004544 53 257 0.0 0.0 0.00 0.00 0.00 43 1016.5
20260504004041 53 272 0.0 1.0 0.00 0.00 0.00 41 1016.5
20260504003537 53 281 0.0 0.0 0.00 0.00 0.00 40 1016.4
20260504003034 54 260 1.0 1.0 0.00 0.00 0.00 39 1016.4
20260504002531 53 244 0.0 0.0 0.00 0.00 0.00 41 1016.5
20260504002028 53 259 0.0 0.0 0.00 0.00 0.00 41 1016.4
20260504001526 53 262 0.0 0.0 0.00 0.00 0.00 44 1016.2
20260504001022 54 264 0.0 0.0 0.00 0.00 0.00 41 1016.4
20260504000520 55 241 0.0 0.0 0.00 0.00 0.00 39 1016.4
20260504000017 56 248 1.0 1.0 0.00 0.00 0.00 38 1016.4
20260503235515 56 258 1.0 2.0 0.00 0.00 0.00 38 1016.2
20260503235011 56 287 2.0 2.0 0.00 0.00 0.00 39 1016.4
20260503234509 57 265 0.0 0.0 0.00 0.00 0.00 37 1015.9
20260503234007 58 265 1.0 1.0 0.00 0.00 0.00 38 1016.1
20260503233503 58 238 1.0 2.0 0.00 0.00 0.00 36 1016.0
20260503232959 58 263 2.0 3.0 0.00 0.00 0.00 35 1016.0
20260503232456 59 277 1.0 3.0 0.00 0.00 0.00 35 1016.0
20260503231954 59 254 1.0 3.0 0.00 0.00 0.00 33 1015.9
20260503231452 59 334 2.0 3.0 0.00 0.00 0.00 33 1015.8
20260503230948 59 258 4.0 7.0 0.00 0.00 0.00 32 1015.8
20260503230444 59 318 4.0 6.0 0.00 0.00 0.00 32 1015.9
20260503225942 60 275 2.0 4.0 0.00 0.00 0.00 32 1015.9
20260503225439 60 305 2.0 4.0 0.00 0.00 0.00 32 1015.8
20260503224934 61 286 3.0 7.0 0.00 0.00 0.00 31 1015.7
20260503224431 61 307 3.0 4.0 0.00 0.00 0.00 31 1015.8
20260503223929 62 238 0.0 3.0 0.00 0.00 0.00 34 1015.8
20260503223427 61 288 4.0 7.0 0.00 0.00 0.00 30 1015.8
20260503222922 62 323 4.0 6.0 0.00 0.00 0.00 31 1015.7
20260503222421 62 258 7.0 8.0 0.00 0.00 0.00 31 1015.7
20260503221919 62 320 2.0 4.0 0.00 0.00 0.00 31 1015.7
20260503221417 62 252 2.0 7.0 0.00 0.00 0.00 31 1016.0
20260503220913 62 238 4.0 8.0 0.00 0.00 0.00 31 1016.1
20260503220410 62 258 3.0 6.0 0.00 0.00 0.00 33 1015.9
20260503215907 62 248 7.0 9.0 0.00 0.00 0.00 29 1016.1
20260503215404 62 320 4.0 6.0 0.00 0.00 0.00 29 1015.9
20260503214901 62 316 3.0 7.0 0.00 0.00 0.00 33 1015.8
20260503214359 63 290 4.0 7.0 0.00 0.00 0.00 30 1016.0
20260503213856 63 236 2.0 4.0 0.00 0.00 0.00 30 1015.9
20260503213354 63 327 2.0 7.0 0.00 0.00 0.00 31 1015.9
20260503212850 63 228 4.0 8.0 0.00 0.00 0.00 30 1016.0
20260503212348 63 253 2.0 4.0 0.00 0.00 0.00 32 1015.8
20260503211845 63 218 3.0 6.0 0.00 0.00 0.00 31 1016.0
20260503211342 63 252 4.0 8.0 0.00 0.00 0.00 32 1015.9
20260503210837 63 358 4.0 9.0 0.00 0.00 0.00 32 1016.0
20260503210334 63 253 4.0 6.0 0.00 0.00 0.00 32 1016.0
20260503205829 63 288 2.0 6.0 0.00 0.00 0.00 32 1015.7
20260503205326 63 252 5.0 9.0 0.00 0.00 0.00 33 1015.8
20260503204823 63 288 2.0 7.0 0.00 0.00 0.00 31 1016.0
20260503204320 63 303 4.0 7.0 0.00 0.00 0.00 33 1015.9
20260503203817 63 276 3.0 4.0 0.00 0.00 0.00 32 1015.9
20260503203315 62 307 5.0 10.0 0.00 0.00 0.00 31 1016.0
20260503202811 63 289 9.0 11.0 0.00 0.00 0.00 32 1015.9
20260503202310 63 256 4.0 7.0 0.00 0.00 0.00 29 1016.2
20260503201807 61 221 4.0 9.0 0.00 0.00 0.00 31 1016.5
20260503201304 62 285 6.0 8.0 0.00 0.00 0.00 30 1016.6
20260503200802 62 326 5.0 8.0 0.00 0.00 0.00 32 1016.5
20260503200257 62 228 3.0 7.0 0.00 0.00 0.00 31 1016.4
20260503195755 62 356 6.0 10.0 0.00 0.00 0.00 33 1016.6
20260503195251 61 347 3.0 6.0 0.00 0.00 0.00 31 1016.8
20260503194749 62 358 6.0 9.0 0.00 0.00 0.00 32 1016.6
20260503194244 63 314 6.0 8.0 0.00 0.00 0.00 30 1016.8
20260503193741 62 325 2.0 7.0 0.00 0.00 0.00 33 1016.9
20260503193237 63 165 4.0 7.0 0.00 0.00 0.00 30 1016.9
20260503192733 63 235 2.0 7.0 0.00 0.00 0.00 32 1016.8
20260503192228 62 313 3.0 6.0 0.00 0.00 0.00 31 1017.0
20260503191725 61 245 2.0 3.0 0.00 0.00 0.00 32 1017.1
20260503191222 62 307 8.0 11.0 0.00 0.00 0.00 31 1017.3
20260503190719 62 260 2.0 4.0 0.00 0.00 0.00 37 1017.0
20260503190215 61 325 4.0 9.0 0.00 0.00 0.00 34 1017.2
20260503185713 62 329 3.0 7.0 0.00 0.00 0.00 34 1017.3
20260503185208 62 346 3.0 7.0 0.00 0.00 0.00 30 1017.3
20260503184703 61 276 1.0 9.0 0.00 0.00 0.00 40 1017.5
20260503184200 61 325 1.0 8.0 0.00 0.00 0.00 34 1017.6
20260503183656 60 317 8.0 10.0 0.00 0.00 0.00 32 1017.5
20260503183153 60 345 9.0 10.0 0.00 0.00 0.00 33 1017.5
20260503182651 60 258 4.0 8.0 0.00 0.00 0.00 31 1017.5
20260503182150 60 334 3.0 8.0 0.00 0.00 0.00 34 1017.6
20260503181646 59 256 4.0 6.0 0.00 0.00 0.00 35 1017.6
20260503181143 60 340 7.0 9.0 0.00 0.00 0.00 38 1017.7
20260503180640 59 322 6.0 9.0 0.00 0.00 0.00 36 1017.8
20260503180138 59 306 9.0 10.0 0.00 0.00 0.00 34 1017.9
20260503175635 60 300 2.0 7.0 0.00 0.00 0.00 35 1017.7
20260503175132 59 293 2.0 8.0 0.00 0.00 0.00 36 1017.8
20260503174628 60 331 8.0 9.0 0.00 0.00 0.00 36 1017.9
20260503174126 59 312 6.0 9.0 0.00 0.00 0.00 38 1017.9
20260503173620 59 276 6.0 8.0 0.00 0.00 0.00 36 1017.9
20260503173117 56 329 1.0 9.0 0.00 0.00 0.00 37 1018.0
20260503172614 58 315 3.0 8.0 0.00 0.00 0.00 38 1018.1
20260503172112 58 4 2.0 8.0 0.00 0.00 0.00 40 1018.1
20260503171608 56 252 5.0 6.0 0.00 0.00 0.00 40 1018.1
20260503171105 57 279 4.0 7.0 0.00 0.00 0.00 41 1018.1
20260503170601 58 241 2.0 8.0 0.00 0.00 0.00 37 1018.4
20260503150954 52 251 4.0 8.0 0.00 0.00 0.00 47 1018.8
20260503150450 53 319 6.0 11.0 0.00 0.00 0.00 43 1019.0
20260503131343 48 275 3.0 6.0 0.00 0.00 0.00 59 1018.8
20260503130841 48 267 2.0 6.0 0.00 0.00 0.00 59 1018.7
20260503130338 48 333 4.0 7.0 0.00 0.00 0.00 58 1019.0
20260503110732 40 291 1.0 2.0 0.00 0.00 0.00 73 1018.9
20260503110229 38 8 0.0 0.0 0.00 0.00 0.00 77 1018.8
20260503100155 35 263 0.0 0.0 0.00 0.00 0.00 83 1018.3
20260503090115 37 220 1.0 1.0 0.00 0.00 0.00 81 1017.8
20260503081550 39 246 0.0 2.0 0.00 0.00 0.00 77 1017.7
20260503081048 40 265 0.0 0.0 0.00 0.00 0.00 76 1017.6
20260503080544 40 263 0.0 1.0 0.00 0.00 0.00 76 1017.6
20260503072517 39 246 0.0 2.0 0.00 0.00 0.00 78 1017.2
20260503072015 39 263 2.0 2.0 0.00 0.00 0.00 78 1017.3
20260503071511 39 255 0.0 2.0 0.00 0.00 0.00 78 1017.2
20260503071008 38 249 0.0 1.0 0.00 0.00 0.00 79 1017.3
20260503070505 38 239 0.0 0.0 0.00 0.00 0.00 79 1017.1
20260503054928 41 266 1.0 2.0 0.00 0.00 0.00 72 1017.1
20260503054424 41 262 2.0 4.0 0.00 0.00 0.00 72 1017.1
20260503053922 41 265 2.0 2.0 0.00 0.00 0.00 72 1017.1
20260503053420 41 280 1.0 4.0 0.00 0.00 0.00 72 1016.9
20260503052916 41 294 2.0 4.0 0.00 0.00 0.00 71 1017.1
20260503052414 41 334 2.0 3.0 0.00 0.00 0.00 71 1017.1
20260503051910 41 340 3.0 6.0 0.00 0.00 0.00 71 1016.9
20260503051406 42 284 3.0 4.0 0.00 0.00 0.00 70 1016.9
20260503050903 42 2 3.0 7.0 0.00 0.00 0.00 70 1016.9
20260503050359 42 319 2.0 4.0 0.00 0.00 0.00 70 1017.1
20260503045857 41 329 2.0 3.0 0.00 0.00 0.00 70 1017.0
20260503045354 41 268 1.0 4.0 0.00 0.00 0.00 70 1017.0
20260503044851 41 317 2.0 3.0 0.00 0.00 0.00 70 1016.9
20260503044348 41 341 2.0 2.0 0.00 0.00 0.00 70 1017.1
20260503043845 42 311 1.0 2.0 0.00 0.00 0.00 69 1017.2
20260503043342 41 317 1.0 3.0 0.00 0.00 0.00 69 1017.2
20260503042838 42 325 2.0 2.0 0.00 0.00 0.00 69 1017.0
20260503042335 42 341 1.0 2.0 0.00 0.00 0.00 68 1017.1
20260503041830 42 318 2.0 2.0 0.00 0.00 0.00 68 1016.9
20260503041328 42 299 0.0 2.0 0.00 0.00 0.00 67 1017.0
20260503040826 42 240 1.0 3.0 0.00 0.00 0.00 67 1016.9
20260503040323 42 309 1.0 2.0 0.00 0.00 0.00 67 1017.0
20260503035820 43 309 1.0 2.0 0.00 0.00 0.00 65 1017.0
20260503035317 42 262 0.0 2.0 0.00 0.00 0.00 65 1017.1